Tracking 29892 objects as of 21-Nov-2024
HD Live streaming from Space Station
objects crossing your sky now

FENGYUN 1C DEB

Track FENGYUN 1C DEB now!
10-day predictions


NORAD ID: 38786
Int'l Code: 1999-025EUA
Perigee: 748.2 km
Apogee: 1,044.3 km
Inclination: 99.5 °
Period: 102.8 minutes
Semi major axis: 7267 km
RCS: 0.003 m2 (small)
Launch date: May 10, 1999
Source: People's Republic of China (PRC)
Launch site: Taiyaun Space Center, China (TSC)

Note: This is SATELLITE DEBRIS
Your satellite tracking list
Your tracking list is empty




NASA's NSSDC Master Catalog

Two Line Element Set (TLE):
1 38786U 99025EUA 24304.59486532  .00041015  00000-0  22605-1 0  9999
2 38786  99.5002 258.4245 0203765 207.3576 151.6740 14.01354152 27461
Source of the keplerian elements: AFSPC